Tracking 35331 objects as of 16-Sep-2026
HD Live streaming from Space Station
objects crossing your sky now

STARLINK-34703

Track STARLINK-34703 now!
10-day predictions
STARLINK-34703 is classified as:


NORAD ID: 65387
Int'l Code: 2025-191J
Launch date: August 30, 2025
Source: United States (US)
Launch site: AIR FORCE WESTERN TEST RANGE (AFWTR)
Your satellite tracking list
Your tracking list is empty




NASA's NSSDC Master Catalog

Two Line Element Set (TLE):
1 65387U 25191J   26258.87330079  .00013583  00000-0  42215-3 0  9994
2 65387  97.2844 125.0258 0003450  91.8167 268.3471 15.33452176 58935
Source of the keplerian elements: AFSPC